Latest Weather Observations for Lismore Airport

IDN60801

Issued at 3:35 pm EST Friday 1 August 2014 (issued every 30 minutes, with the page automatically refreshed every 10 minutes)

About weather observations | Map of weather stations | Latest weather observations for NSW | Other Formats
Station Details ID: 058214 Name: LISMORE AIRPORT AWS Lat: -28.83 Lon: 153.26 Height: 9.21 m
Data from the previous 72 hours. | See also: Recent months for locations in New South Wales
Date/Time
EST
Temp
°C
App
Temp
°C
Dew
Point
Rel
Hum
%
Delta-T
°C
Wind Press
QNH
hPa
Press
MSL
hPa
Rain
since 9 am
mm
Dir
 
Spd
km/h
Gust
km/h
Spd
kts
Gust
kts
01/03:30pm 27.0 22.0 8.0 30 10.2 N 24 32 13 17 1008.7 - 0.0
01/03:00pm 27.1 21.4 8.5 31 10.1 N 28 39 15 21 1008.7 1008.7 0.0
01/02:30pm 26.9 20.9 8.8 32 9.9 N 30 39 16 21 1009.0 - 0.0
01/02:00pm 27.2 22.5 9.1 32 10.0 NNW 24 35 13 19 1009.3 1009.3 0.0
01/01:30pm 27.2 21.9 8.6 31 10.1 NW 26 39 14 21 1009.7 - 0.0
01/01:00pm 27.1 22.2 8.5 31 10.1 N 24 33 13 18 1010.1 1010.1 0.0
01/12:30pm 26.5 21.7 8.9 33 9.6 NNW 24 35 13 19 1010.7 - 0.0
01/12:00pm 26.2 20.7 9.1 34 9.3 NNW 28 39 15 21 1011.4 1011.4 0.0
01/11:30am 26.0 21.2 8.9 34 9.3 NNW 24 35 13 19 1011.9 - 0.0
01/11:00am 25.6 20.3 8.6 34 9.2 NNW 26 39 14 21 1012.4 1012.4 0.0
01/10:30am 26.0 20.7 9.8 36 8.9 NNW 28 35 15 19 1012.8 - 0.0
01/10:00am 25.0 19.7 9.7 38 8.4 N 28 35 15 19 1013.1 1013.1 0.0
01/09:39am 23.9 17.8 9.9 41 7.7 NNW 32 37 17 20 1013.4 - 0.0
01/09:30am 22.6 20.8 11.0 48 6.4 N 11 17 6 9 1013.5 - 0.0
01/09:00am 20.5 18.4 11.2 55 5.1 N 13 17 7 9 1013.8 1013.8 0.0
01/08:30am 17.8 16.2 11.6 67 3.4 N 11 15 6 8 1013.9 - 0.0
01/08:00am 14.8 12.9 10.6 76 2.2 N 11 15 6 8 1013.9 1013.9 0.0
01/07:30am 11.6 8.7 9.5 87 1.1 N 15 17 8 9 1014.1 - 0.0
01/07:00am 9.0 7.0 8.7 98 0.1 N 9 17 5 9 1014.0 1014.0 0.0
01/06:30am 9.0 5.9 8.7 98 0.1 N 15 17 8 9 1014.0 - 0.0
01/06:00am 8.3 5.9 7.1 92 0.6 N 9 13 5 7 1013.9 1013.9 0.0
01/05:30am 8.5 7.5 7.4 93 0.5 ENE 2 7 1 4 1013.8 - 0.0
01/05:00am 8.6 6.1 8.3 98 0.1 NNE 11 13 6 7 1013.9 1013.9 0.0
01/04:30am 8.0 4.4 6.8 92 0.6 N 15 26 8 14 1013.8 - 0.0
01/04:00am 10.2 7.2 7.8 85 1.2 N 13 15 7 8 1013.8 1013.8 0.0
01/03:30am 9.4 6.4 7.7 89 0.8 N 13 17 7 9 1013.8 - 0.0
01/03:00am 10.1 6.4 7.9 86 1.1 N 17 17 9 9 1013.8 1013.8 0.0
01/02:30am 9.5 5.4 6.4 81 1.4 N 17 19 9 10 1014.1 - 0.0
01/02:00am 11.4 7.5 6.9 74 2.1 N 17 19 9 10 1014.4 1014.4 0.0
01/01:30am 11.3 7.3 6.8 74 2.1 N 17 19 9 10 1014.6 - 0.0
01/01:00am 10.4 6.3 6.2 75 2.0 N 17 19 9 10 1014.9 1014.9 0.0
01/12:30am 10.5 6.4 6.3 75 2.0 N 17 19 9 10 1015.2 - 0.0
01/12:00am 10.3 5.8 5.9 74 2.0 NNW 19 19 10 10 1015.5 1015.5 0.0
 
Date/Time
EST
Temp
°C
App
Temp
°C
Dew
Point
Rel
Hum
%
Delta-T
°C
Wind Press
QNH
hPa
Press
MSL
hPa
Rain
since 9 am
mm
Dir
 
Spd
km/h
Gust
km/h
Spd
kts
Gust
kts
31/11:30pm 10.0 5.8 5.6 74 2.0 NNW 17 19 9 10 1015.6 - 0.0
31/11:00pm 10.6 6.8 5.6 71 2.3 NNW 15 17 8 9 1015.8 1015.8 0.0
31/10:30pm 11.8 7.5 5.2 64 3.0 N 17 19 9 10 1016.0 - 0.0
31/10:00pm 11.9 7.9 5.1 63 3.1 N 15 17 8 9 1016.0 1016.0 0.0
31/09:30pm 12.1 7.7 5.0 62 3.3 NNW 17 17 9 9 1015.9 - 0.0
31/09:00pm 11.9 7.8 4.6 61 3.3 N 15 17 8 9 1015.9 1015.9 0.0
31/08:30pm 12.3 8.1 5.9 65 3.0 NNW 17 19 9 10 1015.8 - 0.0
31/08:00pm 11.1 7.6 5.4 68 2.6 N 13 15 7 8 1015.6 1015.6 0.0
31/07:30pm 12.9 9.8 7.1 68 2.8 N 13 15 7 8 1015.3 - 0.0
31/07:00pm 13.1 10.1 7.8 70 2.6 N 13 15 7 8 1014.9 1014.9 0.0
31/06:30pm 13.9 11.2 7.2 64 3.3 N 11 13 6 7 1014.5 - 0.0
31/06:00pm 15.7 12.6 3.5 44 5.6 N 9 11 5 6 1014.5 1014.5 0.0
31/05:30pm 16.7 12.9 2.0 37 6.6 NNW 11 13 6 7 1014.2 - 0.0
31/05:00pm 21.1 17.2 1.4 27 9.0 N 11 13 6 7 1014.0 1014.0 0.0
31/04:30pm 23.8 19.0 0.2 21 10.8 N 15 19 8 10 1013.8 - 0.0
31/04:00pm 25.0 20.1 -0.2 19 11.5 N 15 19 8 10 1013.8 1013.8 0.0
31/03:30pm 25.7 20.7 -1.2 17 12.2 N 15 20 8 11 1013.9 - 0.0
31/03:00pm 25.9 20.5 -1.0 17 12.2 N 17 20 9 11 1014.1 1014.1 0.0
31/02:30pm 26.1 21.9 -0.8 17 12.3 NNW 11 19 6 10 1014.4 - 0.0
31/02:00pm 26.1 21.4 -1.7 16 12.5 NNW 13 20 7 11 1014.7 1014.7 0.0
31/01:30pm 26.0 20.9 -1.7 16 12.4 WNW 15 20 8 11 1015.2 - 0.0
31/01:00pm 25.5 20.8 -4.9 13 12.8 NW 11 22 6 12 1015.8 1015.8 0.0
31/12:30pm 25.1 20.9 1.9 22 11.1 N 13 20 7 11 1016.6 - 0.0
31/12:00pm 24.5 21.5 4.3 27 10.0 NNW 9 19 5 10 1017.4 1017.4 0.0
31/11:30am 23.6 20.6 4.0 28 9.6 NNW 9 15 5 8 1018.3 - 0.0
31/11:00am 21.5 19.4 5.8 36 7.8 ENE 6 9 3 5 1019.1 1019.1 0.0
31/10:30am 19.6 19.2 8.3 48 5.9 CALM 0 6 0 3 1019.8 - 0.0
31/10:00am 17.2 15.6 7.8 54 4.7 N 6 9 3 5 1020.2 1020.2 0.0
31/09:30am 14.0 11.8 6.4 60 3.6 N 7 11 4 6 1020.6 - 0.0
31/09:00am 11.5 8.7 6.8 73 2.2 N 11 13 6 7 1020.6 1020.6 0.0
31/08:30am 8.7 5.3 6.0 83 1.2 N 13 17 7 9 1020.6 - 0.0
31/08:00am 6.9 4.2 5.7 92 0.5 N 9 13 5 7 1020.6 1020.6 0.0
31/07:30am 4.7 0.6 4.4 98 0.1 N 15 17 8 9 1020.3 - 0.0
31/07:00am 3.3 -0.3 3.0 98 0.1 N 11 13 6 7 1020.0 1020.0 0.0
31/06:30am 2.5 -0.4 2.4 99 0.0 N 7 7 4 4 1019.8 - 0.0
31/06:00am 2.5 -0.8 2.4 99 0.0 N 9 11 5 6 1019.5 1019.5 0.0
31/05:30am 3.5 0.7 3.4 99 0.0 NNE 7 9 4 5 1019.4 - 0.0
31/05:00am 2.6 -0.4 1.9 95 0.3 N 7 9 4 5 1019.3 1019.3 0.0
31/04:30am 4.1 1.6 3.8 98 0.1 NNE 6 9 3 5 1019.3 - 0.0
31/04:00am 4.4 0.6 3.8 96 0.2 N 13 15 7 8 1019.2 1019.2 0.0
31/03:30am 4.7 0.6 4.3 97 0.2 N 15 17 8 9 1019.1 - 0.0
31/03:00am 4.7 0.6 4.3 97 0.2 N 15 17 8 9 1019.1 1019.1 0.0
31/02:30am 4.5 0.6 3.6 94 0.4 N 13 17 7 9 1019.4 - 0.0
31/02:00am 5.1 1.0 4.5 96 0.3 N 15 19 8 10 1019.6 1019.6 0.0
31/01:30am 5.7 2.0 4.7 93 0.4 N 13 17 7 9 1019.9 - 0.0
31/01:00am 5.2 1.1 4.6 96 0.3 N 15 17 8 9 1020.0 1020.0 0.0
31/12:30am 5.3 2.0 4.6 95 0.3 N 11 15 6 8 1020.0 - 0.0
31/12:00am 5.6 3.8 3.4 86 0.9 NE 2 9 1 5 1020.3 1020.3 0.0
 
Date/Time
EST
Temp
°C
App
Temp
°C
Dew
Point
Rel
Hum
%
Delta-T
°C
Wind Press
QNH
hPa
Press
MSL
hPa
Rain
since 9 am
mm
Dir
 
Spd
km/h
Gust
km/h
Spd
kts
Gust
kts
30/11:30pm 5.9 2.6 4.5 91 0.6 N 11 11 6 6 1020.2 - 0.0
30/11:00pm 7.1 3.9 5.1 87 0.9 N 11 13 6 7 1020.2 1020.2 0.0
30/10:30pm 7.0 4.1 4.5 84 1.1 N 9 13 5 7 1020.1 - 0.0
30/10:00pm 8.0 4.5 5.3 83 1.2 N 13 15 7 8 1019.9 1019.9 0.0
30/09:30pm 8.7 5.1 4.9 77 1.7 N 13 17 7 9 1020.0 - 0.0
30/09:00pm 9.6 5.8 5.6 76 1.8 N 15 17 8 9 1019.9 1019.9 0.0
30/08:30pm 9.9 6.0 5.5 74 2.0 N 15 17 8 9 1019.9 - 0.0
30/08:00pm 10.0 6.6 5.8 75 1.9 N 13 17 7 9 1019.9 1019.9 0.0
30/07:30pm 11.0 7.7 6.2 72 2.2 N 13 15 7 8 1019.8 - 0.0
30/07:00pm 12.2 8.5 6.5 68 2.7 N 15 17 8 9 1019.6 1019.6 0.0
30/06:30pm 12.1 9.7 5.3 63 3.1 NW 7 7 4 4 1019.4 - 0.0
30/06:00pm 15.1 13.6 4.8 50 4.8 W 2 6 1 3 1019.3 1019.3 0.0
30/05:30pm 17.7 14.1 5.0 43 6.1 NE 13 17 7 9 1018.9 - 0.0
30/05:00pm 19.1 15.7 4.1 37 7.1 NE 11 17 6 9 1018.8 1018.8 0.0
30/04:30pm 23.0 21.3 1.9 25 9.9 CALM 0 6 0 3 1018.7 - 0.0
30/04:00pm 23.3 20.0 -1.6 19 10.9 SSW 6 7 3 4 1018.5 1018.5 0.0
30/03:30pm 23.6 20.9 -2.1 18 11.2 WNW 2 7 1 4 1018.2 - 0.0
30/03:00pm 23.4 20.1 -1.5 19 11.0 E 6 11 3 6 1018.3 1018.3 0.0
30/02:30pm 23.8 20.2 -1.9 18 11.3 ESE 7 13 4 7 1018.3 - 0.0
30/02:00pm 23.6 19.5 0.0 21 10.7 S 11 17 6 9 1018.6 1018.6 0.0
30/01:30pm 23.9 20.1 -0.4 20 11.0 NNW 9 13 5 7 1018.8 - 0.0
30/01:00pm 23.2 19.8 -0.3 21 10.6 NW 7 11 4 6 1019.1 1019.1 0.0
30/12:30pm 23.2 20.0 0.9 23 10.3 N 7 17 4 9 1019.6 - 0.0
30/12:00pm 22.1 18.5 0.6 24 9.7 NNW 9 13 5 7 1020.3 1020.3 0.0
30/11:30am 22.0 19.0 0.5 24 9.7 NW 6 11 3 6 1020.8 - 0.0
30/11:00am 21.2 18.4 3.4 31 8.5 NNW 7 13 4 7 1021.4 1021.4 0.0
30/10:30am 20.1 16.4 4.6 36 7.5 NNW 13 17 7 9 1021.9 - 0.0
30/10:00am 17.6 13.9 4.5 42 6.2 N 13 15 7 8 1022.3 1022.3 0.0
30/09:30am 14.5 11.1 5.8 56 4.1 N 13 15 7 8 1022.6 - 0.0
30/09:00am 11.3 8.7 6.2 71 2.4 N 9 13 5 7 1023.0 1023.0 0.0
30/08:30am 8.6 5.6 5.9 83 1.2 N 11 15 6 8 1022.9 - 0.0
30/08:00am 6.9 3.4 5.4 90 0.7 N 13 17 7 9 1022.7 1022.7 0.0
30/07:30am 4.9 0.7 3.6 91 0.5 N 15 17 8 9 1022.5 - 0.0
30/07:00am 3.8 -0.8 3.7 99 0.0 N 17 19 9 10 1022.1 1022.1 0.0
30/06:30am 3.3 -1.0 3.0 98 0.1 N 15 17 8 9 1021.8 - 0.0
30/06:00am 2.6 -1.2 2.0 96 0.2 N 11 13 6 7 1021.6 1021.6 0.0
30/05:30am 3.4 -0.6 2.7 95 0.3 NNE 13 17 7 9 1021.4 - 0.0
30/05:00am 4.3 0.5 3.9 97 0.2 N 13 15 7 8 1021.1 1021.1 0.0
30/04:30am 3.7 0.4 2.7 93 0.4 NNE 9 11 5 6 1020.9 - 0.0
30/04:00am 5.0 0.5 4.1 94 0.4 N 17 19 9 10 1020.8 1020.8 0.0
30/03:30am 4.8 0.6 3.8 93 0.4 N 15 17 8 9 1020.6 - 0.0
30/03:00am 5.0 1.3 4.3 95 0.3 N 13 17 7 9 1020.7 1020.7 0.0
30/02:30am 5.1 0.6 4.2 94 0.4 N 17 17 9 9 1020.8 - 0.0
30/02:00am 4.8 0.9 3.6 92 0.5 N 13 17 7 9 1020.8 1020.8 0.0
30/01:30am 5.8 2.1 4.4 91 0.6 NNE 13 15 7 8 1020.9 - 0.0
30/01:00am 6.2 2.2 4.8 91 0.6 NNE 15 19 8 10 1021.2 1021.2 0.0
30/12:30am 5.8 1.7 4.4 91 0.6 N 15 17 8 9 1021.4 - 0.0
30/12:00am 5.8 2.1 4.3 90 0.6 N 13 15 7 8 1021.5 1021.5 0.0
 
Date/Time
EST
Temp
°C
App
Temp
°C
Dew
Point
Rel
Hum
%
Delta-T
°C
Wind Press
QNH
hPa
Press
MSL
hPa
Rain
since 9 am
mm
Dir
 
Spd
km/h
Gust
km/h
Spd
kts
Gust
kts
29/11:30pm 6.3 2.6 4.5 88 0.8 N 13 17 7 9 1021.6 - 0.0
29/11:00pm 7.1 3.5 4.9 86 1.0 N 13 15 7 8 1021.7 1021.7 0.0
29/10:30pm 7.7 4.5 5.3 85 1.1 N 11 13 6 7 1021.5 - 0.0
29/10:00pm 7.1 4.2 4.9 86 1.0 NNE 9 11 5 6 1021.1 1021.1 0.0
29/09:30pm 8.1 5.5 5.9 86 1.0 N 9 13 5 7 1021.2 - 0.0
29/09:00pm 8.1 5.8 5.9 86 1.0 N 7 11 4 6 1020.9 1020.9 0.0
29/08:30pm 9.3 6.9 5.1 75 1.9 N 7 9 4 5 1020.5 - 0.0
29/08:00pm 10.8 10.0 6.6 75 2.0 CALM 0 0 0 0 1020.3 1020.3 0.0
29/07:30pm 11.8 8.4 6.1 68 2.7 N 13 17 7 9 1019.8 - 0.0
29/07:00pm 13.7 10.8 6.3 61 3.5 NNE 11 17 6 9 1019.6 1019.6 0.0
29/06:30pm 14.6 11.1 7.4 62 3.5 N 15 19 8 10 1019.3 - 0.0
29/06:00pm 16.4 12.2 7.6 56 4.4 NNE 19 26 10 14 1018.9 1018.9 0.0
29/05:30pm 17.2 12.6 5.8 47 5.5 NE 19 26 10 14 1018.8 - 0.0
29/05:00pm 17.5 15.9 2.3 36 6.9 CALM 0 0 0 0 1018.7 1018.7 0.0
29/04:30pm 21.5 19.2 -2.4 20 10.2 CALM 0 0 0 0 1018.7 - 0.0
29/04:00pm 22.2 20.0 -1.8 20 10.4 CALM 0 6 0 3 1018.7 1018.7 0.0

Other Formats:

Comma delimited format used in spreadsheet applications
http://www.bom.gov.au/fwo/IDN60801/IDN60801.94572.axf

JavaScript Object Notation format (JSON) in row-major order
http://www.bom.gov.au/fwo/IDN60801/IDN60801.94572.json